IPIPIL3 Weather Reports


Display with metric or nautical units.
time (UTC)temp
F
wind
direction
speed
MPH
gust
MPH
rain 1hr
in
rain 24hr
in
rain mn
in
humidity
%
barometer
mb
20260504050002 0 327.0 255.0 0.00 0.00 0.00 1009.2
20260504044505 0 327.0 255.0 0.00 0.00 0.00 1009.3
20260504043006 0 327.0 255.0 0.00 0.00 0.00 1009.5
20260504041502 0 327.0 255.0 0.00 0.00 0.00 1009.4
20260504040006 0 327.0 255.0 0.00 0.00 0.00 1009.3
20260504034501 0 327.0 255.0 0.00 0.00 0.00 1009.6
20260504033004 0 327.0 255.0 0.00 0.00 0.00 1009.3
20260504031502 0 327.0 255.0 0.00 0.00 0.00 1009.2
20260504030002 0 327.0 255.0 0.00 0.00 0.00 1009.1
20260504024503 0 327.0 255.0 0.00 0.00 0.00 1008.9
20260504023004 0 327.0 255.0 0.00 0.00 0.00 1009.1
20260504021501 0 327.0 255.0 0.00 0.00 0.00 1009.0
20260504020002 0 327.0 255.0 0.00 0.00 0.00 1008.7
20260504014502 0 327.0 255.0 0.00 0.00 0.00 1008.6
20260504013005 0 327.0 255.0 0.00 0.00 0.00 1008.3
20260504011501 0 327.0 255.0 0.00 0.00 0.00 1008.2
20260504010001 0 327.0 255.0 0.00 0.00 0.00 1007.9
20260504004505 0 327.0 255.0 0.00 0.00 0.00 1007.9
20260504003004 0 327.0 255.0 0.00 0.00 0.00 1007.8
20260504001502 0 327.0 255.0 0.00 0.00 0.00 1007.6
20260504000002 0 327.0 255.0 0.00 0.00 0.00 1007.4
20260503234502 0 327.0 255.0 0.00 0.00 0.00 1007.2
20260503233004 0 327.0 255.0 0.00 0.00 0.00 1007.2
20260503231502 0 327.0 255.0 0.00 0.00 0.00 1007.2
20260503230001 76 67 1.0 3.0 0.00 0.00 0.00 95 1006.9
20260503224502 76 66 1.0 4.0 0.00 0.00 0.00 95 1006.7
20260503223003 76 117 1.0 4.0 0.00 0.00 0.00 95 1006.7
20260503221501 76 59 1.0 3.0 0.00 0.00 0.00 95 1006.6
20260503220001 76 101 1.0 3.0 0.00 0.00 0.00 95 1006.5
20260503214503 76 65 2.0 4.0 0.00 0.00 0.00 95 1006.7
20260503213005 76 67 2.0 5.0 0.00 0.00 0.00 94 1006.7
20260503211500 76 101 2.0 7.0 0.00 0.00 0.00 94 1006.8
20260503210002 77 81 1.0 3.0 0.00 0.00 0.00 92 1006.9
20260503204502 77 116 2.0 3.0 0.00 0.00 0.00 92 1006.9
20260503203004 77 101 1.0 4.0 0.00 0.00 0.00 92 1007.2
20260503201502 77 53 2.0 6.0 0.00 0.00 0.00 93 1007.2
20260503200002 76 59 1.0 3.0 0.00 0.00 0.00 93 1007.3
20260503194504 76 92 0.0 3.0 0.00 0.00 0.00 93 1007.2
20260503193007 77 87 0.0 1.0 0.00 0.00 0.00 93 1007.3
20260503191511 77 87 1.0 4.0 0.00 0.00 0.00 92 1007.6
20260503190004 77 60 2.0 6.0 0.00 0.00 0.00 93 1007.6
20260503184503 77 89 3.0 9.0 0.00 0.00 0.00 93 1007.7
20260503183006 77 90 1.0 4.0 0.00 0.00 0.00 93 1007.9
20260503181504 77 85 1.0 6.0 0.00 0.00 0.00 93 1008.1
20260503180001 76 67 2.0 5.0 0.00 0.00 0.00 93 1008.0
20260503174601 76 75 1.0 3.0 0.00 0.00 0.00 93 1008.0
20260503174501 76 75 1.0 3.0 0.00 0.00 0.00 93 1008.0
20260503173013 76 80 2.0 5.0 0.00 0.00 0.00 93 1007.9
20260503171503 77 59 2.0 6.0 0.00 0.00 0.00 92 1007.8
20260503081510 84 266 3.0 14.0 0.00 0.00 0.00 82 1005.7
20260503071604 85 250 4.0 10.0 0.00 0.00 0.00 81 1006.8